Airfield :
LOGIN :

Register | Disclaimer

   EN    FR    IT 

 










Legend :    VFR   Marginal VFR   IFR   Intensive IFR   Very Intensive IFR
Visi :
Ceiling :
>= 8 km
>= 3000ft
5 to 8 km
1000 to 3000 ft
1500m to 5 km
500 to 1000 ft
800 to 1500m
200 to 500 ft
< 800m
< 200 ft
Symbols :   Thunderstorms  Fog  Heavy snow  Heavy precipitations  Wind > 20 kt
SIGMETs :     Misc.  Thunderstorms  Icing  Turbulence  Mountain Waves  Volcanic Ashes







- Airport Elevation : 302 ft
- Download approach charts


LFPM - Melun Villaroche

CURRENT METAR :
  • 250130Z AUTO 33004KT CAVOK 12/10 Q1023

EXPIRED METARs :
  • 250100Z AUTO 01003KT 330V040 CAVOK 13/10 Q1023
  • 250030Z AUTO 36006KT CAVOK 14/10 Q1023
  • 250000Z AUTO 34006KT CAVOK 13/10 Q1023
  • 242330Z AUTO 33006KT CAVOK 14/10 Q1023
  • 242300Z AUTO 35005KT CAVOK 14/10 Q1023

Expired Forecast.
ATIS : +33 1 64 14 28 44
No reported NOTAMs for that airfield.



MET'MAP, your aeronautical weather chart ! - Copyright ORBIFLY December 2007 - Disclaimer

ORBIFLY MET'MAP TEAM :

Programming & Development : Alexandra Zaïnal
Concept & Development : Baudouin d'Aumeries
Co-Development & Prog : Marc-Olivier Méhu
Technical & hardware support : Manuel Goepfert

Contact : metmap@orbifly.com




SOURCES & CREDITS :

   NOAA